CYFB

Iqaluit Airport

ICAO Code CYFB
IATA Code YFB
Name Iqaluit Airport
Location Iqaluit, Nunavut, CA
Elevation 110 Feet / 33.5 Meters
Latitude 63.75666667
Longitude -68.55611111
METAR CYFB 260500Z 32010KT 15SM -SN SCT010 OVC020 M01/M02 A2994 RMK SC4SC4 SLP144
Extra information Display Charts and CFS
Display NOTAMS
Runway Length Width Surface Elevation
16 8605 ft 200 ft ASP 110 ft
34 8605 ft 200 ft ASP 71 ft